Regional Weather Roundup
Issued by NWS

Home | Current Version | Previous Version | Text Only | Print | Product List | Glossary On
Versions: 1 2 3 4 5 6 7 8 9 10 11 12 13 14 15 16 17 18 19 20 21 22 23 24 25 26 27 28
000
ASUS46 KSEW 061910
RWRWA

WASHINGTON REGIONAL WEATHER ROUNDUP
NATIONAL WEATHER SERVICE SEATTLE WA
1200 PM PDT FRI MAY 06 2016

NOTE:"FAIR" INDICATES FEW OR NO CLOUDS BELOW 12,000 FEET WITH NO
SIGNIFICANT WEATHER AND/OR OBSTRUCTIONS TO VISIBILITY.

WAZ505-507>509-062000-
SEATTLE, TACOMA, EVERETT, AND VICINITY

CITY           SKY/WX    TMP DP  RH WIND       PRES   REMARKS
EVERETT        SUNNY     63  46  54 N8        30.08F
BOEING FIELD   SUNNY     70  48  45 VRB6      30.06F
RENTON         SUNNY     67  49  52 NW12      30.05F
SEATAC AIRPORT MOSUNNY   69  43  38 N14G20    30.07F
JBLM-MCCHORD   SUNNY     68  48  48 N10       30.05F
PUYALLUP       FAIR      70  54  56 VRB3      30.05F
BREMERTON      SUNNY     70  45  40 NE10G16   30.07F
JBLM-FT LEWIS  SUNNY     69  41  37 N12       30.04F
TACOMA NARROWS SUNNY     67  39  35 N14       30.07F
$$

WAZ001-503-506-510-514-515-062000-
NORTH INTERIOR

CITY           SKY/WX    TMP DP  RH WIND       PRES   REMARKS
BELLINGHAM     SUNNY     68  50  52 W12       30.07F
FRIDAY HARBOR  SUNNY     67  44  43 N9G18     30.10F
EASTSOUND      SUNNY     59  50  72 N8        30.10S
PORT ANGELES   SUNNY     72  30  21 E7        30.11F
EDIZ HOOK      FAIR      68  37  31 E3        30.10F
PORT TOWNSEND  FAIR      68  41  37 NW13G18   30.08F
NAS WHIDBEY    NOT AVBL
ARLINGTON      SUNNY     66  48  52 W10       30.08F
BURLINGTON     SUNNY     63  50  63 W10       30.08F
$$

WAZ020-022-039-040-504-511-512-062000-
SOUTHWEST INTERIOR

CITY           SKY/WX    TMP DP  RH WIND       PRES   REMARKS
SHELTON        SUNNY     70  46  42 E3        30.03F
OLYMPIA        SUNNY     70  41  34 E14       30.04F
CHEHALIS       FAIR      72  48  43 VRB7G20   30.03F
KELSO          SUNNY     72  48  43 N9G16     30.03F
VANCOUVER      SUNNY     72  51  47 W9        29.98F
SCAPPOOSE, OR  SUNNY     72  49  44 N13       29.98F
PORTLAND, OR   MOSUNNY   72  49  44 NW9       29.98F
$$

WAZ021-516-517-062000-
WASHINGTON COAST

CITY           SKY/WX    TMP DP  RH WIND       PRES   REMARKS
FORKS          SUNNY     76  29  17 NE14G23   30.06F
HOQUIAM        SUNNY     66  51  58 SE5       30.05F
ASTORIA, OR    SUNNY     68  51  54 NW8       30.02F
$$

WAZ019-023-024-040-518-519-062000-
CASCADE MOUNTAINS AND COLUMBIA GORGE

CITY           SKY/WX    TMP DP  RH WIND       PRES   REMARKS
STAMPEDE PASS  SUNNY     63  39  41 CALM      30.10F
TROUTDALE, OR  SUNNY     72  52  49 VRB6      29.97F
THE DALLES, OR SUNNY     76  47  35 CALM      29.96F
$$

WAZ026-027-041>044-520-521-062000-
EAST SLOPES

CITY           SKY/WX    TMP DP  RH WIND       PRES   REMARKS
OMAK           SUNNY     73  39  29 N17       30.08F
WENATCHEE      CLOUDY    69  40  34 W8        30.05F
ELLENSBURG     SUNNY     76  42  29 SE5       30.03F
YAKIMA         PTSUNNY   79  45  29 N13G23    30.00F
$$

WAZ028-034-035-062000-
COLUMBIA BASIN

CITY           SKY/WX    TMP DP  RH WIND       PRES   REMARKS
EPHRATA        SUNNY     77  46  33 N16G26    30.00F
MOSES LAKE     SUNNY     79  48  33 NE17G29   29.99F
PASCO          SUNNY     76  55  48 NE8       29.96F
HERMISTON, OR  MOSUNNY   70  51  51 VRB3      29.97F
$$

WAZ036>038-062000-
NORTHEAST WASHINGTON

CITY           SKY/WX    TMP DP  RH WIND       PRES   REMARKS
SPOKANE GEIGER PTSUNNY   72  46  39 NE18G26   30.02F
SPOKANE FELTS  MOSUNNY   74  47  38 NE20G25   30.03F
FAIRCHILD AFB  SUNNY     71  48  45 NE17G30   30.02F
COEURDALENE,ID MOSUNNY   73  48  40 E17G24    30.02F
DEER PARK      SUNNY     72  45  37 NE18G31   30.05F
$$

WAZ029>033-062000-
SOUTHEAST WASHINGTON

CITY           SKY/WX    TMP DP  RH WIND       PRES   REMARKS
PULLMAN        CLOUDY    69  52  54 NE15      30.00F
LEWISTON, ID   CLOUDY    67  57  70 VRB3      29.96F
WALLA WALLA    PTSUNNY   65  53  65 CALM      29.98S
PENDLETON, OR  PTSUNNY   65  48  54 N6        29.98F
$$




USA.gov is the U.S. government's official web portal to all federal, state and local government web resources and services.